FW8901 Weather Reports


time (UTC)temp
C
wind
direction
speed
KPH
gust
KPH
rain 1hr
cm
rain 24hr
cm
rain mn
cm
humidity
%
barometer
mb
20260507155047 12 0.0 0.0 0.00 0.94 0.94 71 1012.0
20260507154556 12 0.0 0.0 0.00 0.94 0.94 73 1012.0
20260507154048 12 0.0 0.0 0.00 0.94 0.94 71 1012.0
20260507153547 12 0.0 0.0 0.00 0.94 0.94 71 1012.0
20260507153102 12 0.0 0.0 0.00 0.94 0.94 69 1012.0
20260507152547 12 0.0 0.0 0.00 0.94 0.94 69 1012.0
20260507152048 12 0.0 0.0 0.00 0.94 0.94 69 1012.2
20260507151555 12 0.0 0.0 0.00 0.94 0.94 71 1012.1
20260507151049 12 0.0 0.0 0.00 0.94 0.94 72 1012.1
20260507150548 12 0.0 0.0 0.00 0.94 0.94 71 1012.0
20260507145609 12 0.0 0.0 0.00 1.17 0.94 70 1012.1
20260507145047 12 0.0 0.0 0.00 1.17 0.94 69 1012.3
20260507144557 12 0.0 0.0 0.00 1.17 0.94 71 1012.4
20260507144049 12 0.0 0.0 0.00 1.17 0.94 72 1012.6
20260507143547 12 0.0 0.0 0.00 1.17 0.94 70 1012.6
20260507143056 12 0.0 0.0 0.00 1.17 0.94 72 1012.6
20260507142547 12 0.0 0.0 0.00 1.17 0.94 73 1012.5
20260507142048 12 0.0 0.0 0.00 1.17 0.94 73 1012.7
20260507141559 11 0.0 0.0 0.00 1.17 0.94 71 1012.7
20260507141049 11 0.0 0.0 0.03 1.17 0.94 71 1012.8
20260507140548 12 0.0 0.0 0.03 1.17 0.94 70 1012.8
20260507140108 11 0.0 0.0 0.03 1.17 0.94 74 1012.9
20260507135548 11 0.0 0.0 0.03 1.30 0.94 74 1012.9
20260507135049 11 0.0 0.0 0.03 1.30 0.94 74 1012.8
20260507134601 11 0.0 0.0 0.03 1.30 0.94 76 1012.8
20260507134048 11 0.0 0.0 0.03 1.30 0.94 79 1012.8
20260507133550 11 0.0 0.0 0.03 1.30 0.94 79 1012.9
20260507133104 11 0.0 0.0 0.03 1.30 0.94 79 1013.0
20260507132547 11 0.0 0.0 0.03 1.30 0.94 80 1013.0
20260507132048 11 0.0 0.0 0.03 1.30 0.94 81 1012.8
20260507131557 11 0.0 0.0 0.03 1.30 0.94 82 1012.8
20260507131048 11 0.0 0.0 0.00 1.27 0.91 83 1012.8
20260507130548 11 0.0 0.0 0.00 1.27 0.91 85 1012.7
20260507130105 11 0.0 0.0 0.00 1.27 0.91 85 1012.9
20260507125549 11 0.0 0.0 0.00 1.30 0.91 86 1012.8
20260507125047 11 0.0 0.0 0.00 1.30 0.91 88 1012.9
20260507124629 11 0.0 0.0 0.00 1.30 0.91 89 1012.9
20260507124048 11 0.0 0.0 0.00 1.30 0.91 90 1012.9
20260507123548 12 0.0 0.0 0.00 1.30 0.91 91 1012.7
20260507123053 12 0.0 0.0 0.00 1.30 0.91 92 1012.3
20260507122549 12 0.0 0.0 0.00 1.30 0.91 92 1012.6
20260507122048 12 0.0 0.0 0.00 1.30 0.91 92 1012.7
20260507121557 12 0.0 0.0 0.00 1.30 0.91 93 1012.7
20260507121050 12 0.0 0.0 0.00 1.30 0.91 93 1012.7
20260507120548 12 0.0 0.0 0.00 1.30 0.91 93 1012.6
20260507120055 12 0.0 0.0 0.00 1.30 0.91 93 1012.4
20260507115552 12 0.0 0.0 0.00 1.30 0.91 92 1012.3
20260507115047 12 0.0 0.0 0.00 1.30 0.91 92 1012.4
20260507114612 12 0.0 0.0 0.00 1.30 0.91 93 1012.4
20260507114048 12 0.0 0.0 0.00 1.30 0.91 92 1012.4
20260507113547 12 0.0 0.0 0.00 1.30 0.91 92 1012.5
20260507113112 12 0.0 0.0 0.00 1.30 0.91 92 1012.4
20260507112551 12 0.0 0.0 0.00 1.30 0.91 92 1012.2
20260507112049 12 0.0 0.0 0.00 1.30 0.91 92 1011.8
20260507111555 12 0.0 0.0 0.00 1.30 0.91 92 1012.0
20260507111049 11 0.0 0.0 0.00 1.30 0.91 92 1012.2
20260507110547 11 0.0 0.0 0.00 1.30 0.91 92 1012.2
20260507110054 11 0.0 0.0 0.00 1.30 0.91 92 1012.1
20260507105550 11 0.0 0.0 0.00 1.30 0.91 92 1012.0
20260507105048 11 0.0 0.0 0.00 1.30 0.91 92 1012.0
20260507104558 11 0.0 0.0 0.00 1.30 0.91 92 1012.2
20260507104050 11 0.0 0.0 0.00 1.30 0.91 92 1012.0
20260507103547 11 0.0 0.0 0.00 1.30 0.91 92 1012.0
20260507103057 11 0.0 0.0 0.00 1.30 0.91 92 1011.9
20260507102548 11 0.0 0.0 0.00 1.30 0.91 92 1011.8
20260507102059 12 0.0 0.0 0.00 1.30 0.91 92 1011.7
20260507101558 12 0.0 0.0 0.00 1.30 0.91 92 1011.7
20260507101048 12 0.0 0.0 0.00 1.30 0.91 92 1011.6
20260507100546 12 0.0 0.0 0.00 1.30 0.91 92 1011.6
20260507100056 12 0.0 0.0 0.00 1.30 0.91 92 1011.7
20260507095548 12 0.0 0.0 0.00 1.30 0.91 92 1011.6
20260507095048 12 0.0 0.0 0.00 1.30 0.91 92 1011.6
20260507094553 12 0.0 0.0 0.00 1.30 0.91 92 1011.5
20260507094051 12 0.0 0.0 0.00 1.30 0.91 92 1011.5
20260507093550 12 0.0 0.0 0.00 1.30 0.91 92 1011.6
20260507093056 12 0.0 0.0 0.00 1.30 0.91 92 1011.7
20260507092547 12 0.0 0.0 0.00 1.30 0.91 92 1011.8
20260507092053 12 0.0 0.0 0.00 1.30 0.91 92 1011.5
20260507091600 12 0.0 0.0 0.00 1.30 0.91 92 1011.6
20260507091048 12 0.0 0.0 0.00 1.30 0.91 92 1011.6
20260507090548 12 0.0 0.0 0.00 1.30 0.91 92 1011.4
20260507090058 12 0.0 0.0 0.00 1.30 0.91 92 1011.3
20260507085548 12 0.0 0.0 0.00 1.30 0.91 92 1011.3
20260507085048 12 0.0 0.0 0.00 1.30 0.91 92 1011.2
20260507084552 12 0.0 0.0 0.00 1.30 0.91 92 1011.3
20260507084048 12 0.0 0.0 0.00 1.30 0.91 92 1011.3
20260507083549 12 0.0 0.0 0.00 1.30 0.91 92 1011.4
20260507083053 12 0.0 0.0 0.00 1.30 0.91 91 1011.3
20260507082547 12 0.0 0.0 0.00 1.30 0.91 91 1011.3
20260507082046 12 0.0 0.0 0.00 1.30 0.91 91 1011.5
20260507081555 12 0.0 0.0 0.00 1.30 0.91 91 1011.3
20260507081047 12 0.0 0.0 0.00 1.30 0.91 91 1011.4
20260507080547 12 0.0 0.0 0.00 1.30 0.91 91 1011.5
20260507080056 12 0.0 0.0 0.00 1.30 0.91 91 1011.3
20260507075548 12 0.0 0.0 0.00 1.30 0.91 91 1010.9
20260507075048 12 0.0 0.0 0.00 1.30 0.91 91 1010.9
20260507074606 12 0.0 0.0 0.00 1.30 0.91 91 1010.9
20260507074047 12 0.0 0.0 0.00 1.30 0.91 91 1010.7
20260507073551 12 0.0 0.0 0.00 1.30 0.91 91 1010.8
20260507073054 12 0.0 0.0 0.00 1.30 0.91 91 1010.8
20260507072549 12 0.0 0.0 0.00 1.30 0.91 91 1010.8
20260507072109 12 0.0 0.0 0.00 1.30 0.91 91 1010.6
20260507071554 12 0.0 0.0 0.00 1.30 0.91 91 1010.6
20260507071048 12 0.0 0.0 0.00 1.30 0.91 91 1010.7
20260507070549 12 0.0 0.0 0.00 1.30 0.91 91 1010.8
20260507070115 12 0.0 0.0 0.00 1.30 0.91 91 1010.8
20260507065545 12 0.0 0.0 0.00 1.30 0.91 91 1011.0
20260507065045 12 0.0 0.0 0.00 1.30 0.91 91 1011.0
20260507064602 12 0.0 0.0 0.00 1.30 0.91 91 1010.8
20260507064048 12 0.0 0.0 0.00 1.30 0.91 91 1010.6
20260507063548 12 0.0 0.0 0.00 1.30 0.91 91 1010.7
20260507063058 12 0.0 0.0 0.03 1.30 0.91 90 1010.8
20260507062548 12 0.0 0.0 0.03 1.30 0.91 90 1011.0
20260507062048 13 0.0 0.0 0.05 1.30 0.91 90 1010.8
20260507061557 13 0.0 0.0 0.08 1.30 0.91 90 1010.9
20260507061050 13 0.0 0.0 0.13 1.30 0.91 90 1010.9
20260507060550 13 0.0 0.0 0.13 1.30 0.91 90 1010.8
20260507060056 13 0.0 0.0 0.13 1.30 0.91 90 1010.7
20260507055548 13 0.0 0.0 0.13 1.30 0.91 90 1010.6
20260507055049 13 0.0 0.0 0.15 1.30 0.91 90 1010.4
20260507054554 13 0.0 0.0 0.15 1.30 0.91 90 1010.0
20260507054100 13 0.0 0.0 0.15 1.30 0.91 90 1010.0
20260507053548 14 0.0 0.0 0.18 1.30 0.91 89 1009.8
20260507053049 14 0.0 0.0 0.15 1.27 0.89 89 1010.5
20260507052549 14 0.0 0.0 0.20 1.27 0.89 89 1010.2
20260507052046 14 0.0 0.0 0.23 1.24 0.86 89 1010.2
20260507051557 14 0.0 0.0 0.30 1.22 0.84 89 1010.7
20260507051048 15 0.0 0.0 0.48 1.17 0.79 89 1011.0
20260507050548 15 0.0 0.0 0.74 1.17 0.79 88 1010.8
20260507050056 15 0.0 0.0 0.79 1.17 0.79 88 1010.9
20260507045550 15 0.0 0.0 0.79 1.17 0.79 88 1010.8
20260507045046 15 0.0 0.0 0.76 1.14 0.76 88 1010.5
20260507044612 15 0.0 0.0 0.76 1.14 0.76 87 1010.4
20260507044048 15 0.0 0.0 0.76 1.14 0.76 87 1010.6
20260507043547 16 0.0 0.0 0.74 1.12 0.74 87 1010.7
20260507043053 16 0.0 0.0 0.71 1.09 0.71 86 1010.8
20260507042548 16 0.0 0.0 0.69 1.07 0.69 86 1011.1
20260507042051 16 0.0 0.0 0.64 1.02 0.64 85 1011.1
20260507041642 16 0.0 0.0 0.51 0.89 0.51 85 1011.1
20260507041046 17 0.0 0.0 0.28 0.66 0.28 84 1010.8
20260507040548 17 0.0 0.0 0.05 0.43 0.05 84 1010.9
20260507035548 17 0.0 0.0 0.00 0.38 0.38 82 1009.6
20260507035048 17 0.0 0.0 0.00 0.38 0.38 82 1009.9
20260507034557 17 0.0 0.0 0.00 0.38 0.38 82 1010.0
20260507034048 17 0.0 0.0 0.00 0.38 0.38 82 1010.0
20260507033548 17 0.0 0.0 0.00 0.38 0.38 82 1009.9
20260507033056 17 0.0 0.0 0.00 0.38 0.38 82 1009.9
20260507032546 17 0.0 0.0 0.00 0.38 0.38 82 1009.9
20260507032048 17 0.0 0.0 0.00 0.38 0.38 83 1010.1
20260507031604 17 0.0 0.0 0.00 0.38 0.38 84 1010.1
20260507031048 17 0.0 0.0 0.00 0.38 0.38 84 1010.2
20260507030558 17 0.0 0.0 0.00 0.38 0.38 85 1010.2
20260507030057 17 0.0 0.0 0.00 0.38 0.38 86 1009.9
20260507025549 18 0.0 0.0 0.00 0.38 0.38 87 1009.4
20260507025049 18 0.0 0.0 0.00 0.38 0.38 88 1009.5
20260507024556 18 0.0 0.0 0.00 0.38 0.38 88 1009.7
20260507024047 18 0.0 0.0 0.00 0.38 0.38 88 1009.9
20260507023548 18 0.0 0.0 0.00 0.38 0.38 88 1009.9
20260507023055 18 0.0 0.0 0.00 0.38 0.38 87 1010.0
20260507022548 18 0.0 0.0 0.00 0.38 0.38 87 1009.6
20260507022050 18 0.0 0.0 0.00 0.38 0.38 87 1009.6
20260507021553 18 0.0 0.0 0.00 0.38 0.38 86 1009.5
20260507021048 18 0.0 0.0 0.00 0.38 0.38 86 1009.3
20260507020548 18 0.0 0.0 0.00 0.38 0.38 86 1009.0
20260507020055 18 0.0 0.0 0.00 0.38 0.38 86 1008.9
20260507015549 18 0.0 0.0 0.00 0.38 0.38 86 1009.1
20260507015052 18 0.0 0.0 0.00 0.38 0.38 86 1009.3
20260507014602 18 0.0 0.0 0.00 0.38 0.38 86 1009.3
20260507014051 18 0.0 0.0 0.00 0.38 0.38 85 1009.4
20260507013547 18 0.0 0.0 0.00 0.38 0.38 85 1009.5
20260507013111 18 0.0 0.0 0.00 0.38 0.38 85 1009.5
20260507012547 18 0.0 0.0 0.00 0.38 0.38 85 1009.4
20260507012047 18 0.0 0.0 0.00 0.38 0.38 84 1009.6
20260507011552 18 0.0 0.0 0.00 0.38 0.38 84 1009.6
20260507011047 18 0.0 0.0 0.00 0.38 0.38 83 1009.6
20260507010547 18 0.0 0.0 0.00 0.38 0.38 83 1009.5
20260507005548 19 0.0 0.0 0.00 0.38 0.38 82 1009.5
20260507005046 19 0.0 0.0 0.00 0.38 0.38 82 1009.6
20260507004551 19 0.0 0.0 0.00 0.38 0.38 82 1009.5
20260507004050 19 0.0 0.0 0.00 0.38 0.38 81 1009.4
20260507003546 19 0.0 0.0 0.00 0.38 0.38 81 1009.3
20260507003052 19 0.0 0.0 0.00 0.38 0.38 81 1009.1
20260507002548 20 0.0 0.0 0.00 0.38 0.38 81 1009.1
20260507002047 20 0.0 0.0 0.00 0.38 0.38 81 1009.1
20260507001557 20 0.0 0.0 0.00 0.38 0.38 80 1009.0
20260507001056 20 0.0 0.0 0.00 0.38 0.38 80 1009.2
20260507000546 20 0.0 0.0 0.00 0.38 0.38 80 1009.0
20260507000055 20 0.0 0.0 0.00 0.38 0.38 80 1009.0
20260506235546 20 0.0 0.0 0.00 0.38 0.38 80 1009.0
20260506235047 20 0.0 0.0 0.00 0.38 0.38 79 1008.7
20260506234614 20 0.0 0.0 0.00 0.38 0.38 79 1008.6
20260506234047 20 0.0 0.0 0.00 0.38 0.38 79 1008.7
20260506233549 20 0.0 0.0 0.00 0.38 0.38 79 1008.6
20260506233104 20 0.0 0.0 0.00 0.38 0.38 79 1008.5
20260506232546 20 0.0 0.0 0.00 0.38 0.38 79 1008.5
20260506232050 20 0.0 0.0 0.00 0.38 0.38 78 1008.5
20260506231600 20 0.0 0.0 0.00 0.38 0.38 78 1008.5
20260506231048 20 0.0 0.0 0.00 0.38 0.38 78 1008.5
20260506230548 20 0.0 0.0 0.00 0.38 0.38 78 1008.7
20260506225550 20 0.0 0.0 0.00 0.38 0.38 78 1008.4
20260506225048 20 0.0 0.0 0.00 0.38 0.38 78 1008.4
20260506224553 20 0.0 0.0 0.00 0.38 0.38 78 1008.5
20260506224051 21 0.0 0.0 0.00 0.38 0.38 79 1008.3
20260506223545 21 0.0 0.0 0.00 0.38 0.38 79 1008.3
20260506223055 20 0.0 0.0 0.00 0.38 0.38 80 1008.3
20260506222623 20 0.0 0.0 0.00 0.38 0.38 80 1008.4
20260506222049 20 0.0 0.0 0.00 0.38 0.38 81 1008.4
20260506221601 20 0.0 0.0 0.00 0.38 0.38 80 1008.4
20260506221048 21 0.0 0.0 0.00 0.38 0.38 80 1008.3
20260506220548 20 0.0 0.0 0.00 0.38 0.38 81 1008.2
20260506220100 20 0.0 0.0 0.00 0.38 0.38 80 1008.2
20260506215548 20 0.0 0.0 0.00 0.38 0.38 81 1008.3
20260506215051 20 0.0 0.0 0.00 0.38 0.38 81 1008.3
20260506214600 20 0.0 0.0 0.00 0.38 0.38 80 1008.4
20260506214048 20 0.0 0.0 0.00 0.38 0.38 79 1008.3
20260506213548 20 0.0 0.0 0.00 0.38 0.38 80 1008.3
20260506213105 20 0.0 0.0 0.00 0.38 0.38 80 1008.4
20260506212549 20 0.0 0.0 0.00 0.38 0.38 79 1008.5
20260506212049 20 0.0 0.0 0.00 0.38 0.38 82 1008.5
20260506211609 20 0.0 0.0 0.00 0.38 0.38 80 1008.3
20260506211050 20 0.0 0.0 0.00 0.38 0.38 80 1008.2
20260506210605 20 0.0 0.0 0.00 0.38 0.38 80 1008.2
20260506210056 20 0.0 0.0 0.00 0.38 0.38 80 1008.1
20260506205549 20 0.0 0.0 0.00 0.38 0.38 81 1008.0
20260506205048 20 0.0 0.0 0.00 0.38 0.38 81 1008.1
20260506204558 20 0.0 0.0 0.00 0.38 0.38 80 1008.0
20260506204048 20 0.0 0.0 0.00 0.38 0.38 80 1008.2
20260506203601 20 0.0 0.0 0.00 0.38 0.38 81 1008.1
20260506203055 20 0.0 0.0 0.00 0.38 0.38 81 1008.2
20260506202549 20 0.0 0.0 0.00 0.38 0.38 82 1008.1
20260506202048 19 0.0 0.0 0.00 0.38 0.38 81 1008.2
20260506201553 20 0.0 0.0 0.00 0.38 0.38 82 1008.0
20260506201047 20 0.0 0.0 0.00 0.38 0.38 83 1008.2
20260506200604 20 0.0 0.0 0.00 0.38 0.38 81 1008.1
20260506200055 20 0.0 0.0 0.00 0.38 0.38 83 1008.2
20260506195548 19 0.0 0.0 0.00 0.38 0.38 82 1008.2
20260506195048 19 0.0 0.0 0.00 0.38 0.38 81 1008.2
20260506194554 19 0.0 0.0 0.00 0.38 0.38 82 1008.1
20260506194048 19 0.0 0.0 0.00 0.38 0.38 82 1008.2
20260506193548 19 0.0 0.0 0.00 0.38 0.38 83 1008.4
20260506193054 18 0.0 0.0 0.00 0.38 0.38 84 1008.5
20260506192548 18 0.0 0.0 0.00 0.38 0.38 84 1008.5
20260506192048 18 0.0 0.0 0.00 0.38 0.38 84 1008.6
20260506191557 18 0.0 0.0 0.00 0.38 0.38 84 1008.5
20260506191051 18 0.0 0.0 0.00 0.38 0.38 84 1008.6
20260506190549 18 0.0 0.0 0.00 0.38 0.38 84 1008.8
20260506190059 18 0.0 0.0 0.00 0.38 0.38 84 1009.0
20260506185549 18 0.0 0.0 0.00 0.38 0.38 84 1008.9
20260506185048 18 0.0 0.0 0.00 0.38 0.38 85 1008.9
20260506184607 18 0.0 0.0 0.00 0.38 0.38 84 1009.2
20260506184048 18 0.0 0.0 0.00 0.38 0.38 85 1009.2
20260506183550 18 0.0 0.0 0.00 0.38 0.38 85 1009.1
20260506183053 18 0.0 0.0 0.00 0.38 0.38 85 1009.3
20260506182548 18 0.0 0.0 0.00 0.38 0.38 85 1009.0
20260506182049 18 0.0 0.0 0.00 0.38 0.38 85 1008.9
20260506181552 18 0.0 0.0 0.00 0.38 0.38 86 1009.0
20260506181049 18 0.0 0.0 0.00 0.38 0.38 85 1009.1
20260506180549 18 0.0 0.0 0.00 0.38 0.38 85 1009.0
20260506180055 18 0.0 0.0 0.00 0.38 0.38 85 1009.2
20260506175548 17 0.0 0.0 0.00 0.38 0.38 86 1009.0
20260506175048 17 0.0 0.0 0.00 0.38 0.38 86 1009.5
20260506174556 17 0.0 0.0 0.00 0.38 0.38 85 1009.4
20260506174053 17 0.0 0.0 0.00 0.38 0.38 86 1009.4
20260506173551 17 0.0 0.0 0.00 0.38 0.38 86 1009.3
20260506173106 17 0.0 0.0 0.00 0.38 0.38 86 1009.4
20260506172549 17 0.0 0.0 0.00 0.38 0.38 86 1009.4
20260506172049 17 0.0 0.0 0.00 0.38 0.38 87 1009.6
20260506171558 17 0.0 0.0 0.00 0.38 0.38 86 1009.5
20260506171049 17 0.0 0.0 0.00 0.38 0.38 87 1009.5
20260506170554 17 0.0 0.0 0.00 0.38 0.38 86 1009.6
20260506170059 17 0.0 0.0 0.00 0.38 0.38 86 1009.9
20260506165549 17 0.0 0.0 0.00 0.38 0.38 87 1009.7
20260506165049 17 0.0 0.0 0.00 0.38 0.38 86 1009.8
20260506164613 17 0.0 0.0 0.00 0.38 0.38 86 1009.7
20260506164049 17 0.0 0.0 0.00 0.38 0.38 87 1009.9
20260506163548 17 0.0 0.0 0.00 0.38 0.38 87 1009.9
20260506163112 17 0.0 0.0 0.00 0.38 0.38 88 1009.8
20260506162549 17 0.0 0.0 0.00 0.38 0.38 89 1009.8
20260506162049 16 0.0 0.0 0.00 0.38 0.38 90 1009.8
20260506161553 16 0.0 0.0 0.00 0.38 0.38 92 1009.9
20260506161048 16 0.0 0.0 0.00 0.38 0.38 91 1009.9
20260506160547 16 0.0 0.0 0.00 0.38 0.38 91 1009.9
20260506160106 16 0.0 0.0 0.00 0.38 0.38 91 1010.0
20260506155548 16 0.0 0.0 0.00 0.38 0.38 91 1010.0